STARLINK-6104, 56127

Orbit data source: Space-Track

STARLINK-6104, 56127 is a payload satellite owned by SpaceX/Seattle (US) in LEO that was launched on Wed, 29 Mar 2023 UTC via an FALCON 9 launch vehicle from the Air Force Eastern Test Range (AFETR). Payload-class satellites include a variety of spacecraft equipped with specific instruments for various scientific and technological missions. These include communications satellites like Starlink; space stations such as the ISS; scientific satellites like the Hubble; Earth observation satellites from companies like Planet Labs, Umbra, and HawkEye 360; GPS; miniature CubeSats for education and research; and military/defense satellites.

Loading next visibility...
Identifier
56127, 2023-046AM
Orbit
LEO
Country
Flag of USUS
Related business
Manufacturer
SpaceX/Seattle
Mission
Operational Commercial Communications
Bus & Motor
STARLINK, Unknown motor
Mass
305 kg wet, ~290 kg dry
Launch date (UTC)
2023-03-29 (3 years ago)
Launch vehicle
FALCON 9
Launch site
Air Force Eastern Test Range (AFETR)
Object type
Payload
Rocket body
Debris
Shape & HBR
Box + 1 Pan, 10.1 m
Radar Cross Section
11.087 m², Large (>1 m²)

Expand to show TLE details & history
Last TLE update: 2 days ago

TLE from 2 days ago
0 STARLINK-6104
1 56127U 23046AM  26171.36026686 -.00000051  00000-0  76687-5 0  9996
2 56127  43.0009 290.4550 0001360 277.5585  82.5112 15.27575938177863
Epoch: 2026-06-20T08:38Z
TLE epoch observation values (Epoch: 2026-06-20T08:38:47.056Z)
Latitude
-0.00004°
Longitude
-107.81712°
Altitude
482.715 km
Speed
7.626 km/s
True Right ascension
19h 21m 49s
True Declination
0° 00' 00"
Sunlit
Object was in full shadow at epoch
Visualization orbit readout
Latitude
Unknown
Longitude
Unknown
Altitude
Unknown
Speed
Unknown
Apparent Right ascension
Unknown
Apparent Declination
Unknown
Sunlit
N/A
Visualization observer readout
Local Sidereal Time
21:49:13
Azimuth
Unknown
Elevation
Unknown
Doppler factor
Unknown
Orbital elements
Apogee altitude
485.94 km
Perigee altitude
484.073 km
Semi-major axis
6,863.143 km
Eccentricity
0.00014
Inclination
43.0009°
RAAN
290.455°
Arg. of periapsis
277.5585°
True anomaly
82.52665°
Mean anomaly
82.5112°
Eccentric anomaly
82.51893°
Mean motion
3.81732 °/min
Orbital period
94.31 mins
BSTAR
0.0000076687
Loading maneuver chart data...
Computing Atmospheric mass density...

Documentation

Showing up to 5 results
|